Time,TemperatureF,DewpointF,PressureIn,WindDirection,WindDirectionDegrees,WindSpeedMPH,WindSpeedGustMPH,Humidity,HourlyPrecipIn,Conditions,Clouds,dailyrainin,SoftwareType,DateUTC
2013-03-13 00:03:00,41.2,31.0,29.95,NNW,331,1.0,-999.0,68,-99.99,,,0.79,weatherlink.com 1.10,2013-03-13 04:03:00,
2013-03-13 00:18:00,40.3,32.0,29.96,NW,307,0.0,-999.0,71,-99.99,,,0.79,weatherlink.com 1.10,2013-03-13 04:18:00,
2013-03-13 00:33:00,40.3,31.0,29.96,NW,319,2.0,-999.0,70,-99.99,,,0.79,weatherlink.com 1.10,2013-03-13 04:33:00,
2013-03-13 00:48:00,40.3,31.0,29.96,WNW,292,0.0,-999.0,69,-99.99,,,0.79,weatherlink.com 1.10,2013-03-13 04:48:00,
2013-03-13 01:03:00,40.1,31.0,29.95,NNW,347,0.0,-999.0,70,-99.99,,,0.79,weatherlink.com 1.10,2013-03-13 05:03:00,
2013-03-13 01:18:00,39.9,30.0,29.95,NW,308,2.0,-999.0,69,-99.99,,,0.00,weatherlink.com 1.10,2013-03-13 05:18:00,
2013-03-13 01:33:00,39.5,30.0,29.96,NW,320,3.0,-999.0,70,-99.99,,,0.00,weatherlink.com 1.10,2013-03-13 05:33:00,
2013-03-13 01:48:00,39.1,30.0,29.96,NW,311,0.0,-999.0,71,-99.99,,,0.00,weatherlink.com 1.10,2013-03-13 05:48:00,
2013-03-13 02:03:00,39.1,30.0,29.95,NW,311,2.0,-999.0,71,-99.99,,,0.00,weatherlink.com 1.10,2013-03-13 06:03:00,
2013-03-13 02:18:00,39.2,30.0,29.96,NW,310,0.0,-999.0,69,-99.99,,,0.00,weatherlink.com 1.10,2013-03-13 06:18:00,
2013-03-13 02:33:00,38.5,30.0,29.96,NW,309,0.0,-999.0,71,-99.99,,,0.00,weatherlink.com 1.10,2013-03-13 06:33:00,
2013-03-13 02:48:00,38.2,30.0,29.96,NW,309,0.0,-999.0,72,-99.99,,,0.00,weatherlink.com 1.10,2013-03-13 06:48:00,
2013-03-13 03:03:00,37.2,30.0,29.96,NW,309,0.0,-999.0,74,-99.99,,,0.00,weatherlink.com 1.10,2013-03-13 07:03:00,
2013-03-13 03:18:00,36.2,30.0,29.96,NW,309,0.0,-999.0,77,-99.99,,,0.00,weatherlink.com 1.10,2013-03-13 07:18:00,
2013-03-13 03:33:00,37.5,29.0,29.96,NW,309,0.0,-999.0,72,-99.99,,,0.00,weatherlink.com 1.10,2013-03-13 07:33:00,
2013-03-13 03:48:00,37.9,29.0,29.95,NW,309,0.0,-999.0,69,-99.99,,,0.00,weatherlink.com 1.10,2013-03-13 07:48:00,
2013-03-13 04:03:00,37.9,28.0,29.95,NW,311,0.0,-999.0,68,-99.99,,,0.00,weatherlink.com 1.10,2013-03-13 08:03:00,
2013-03-13 04:18:00,37.0,28.0,29.95,NW,310,0.0,-999.0,70,-99.99,,,0.00,weatherlink.com 1.10,2013-03-13 08:18:00,
2013-03-13 04:33:00,37.3,28.0,29.95,NW,310,0.0,-999.0,68,-99.99,,,0.00,weatherlink.com 1.10,2013-03-13 08:33:00,
2013-03-13 04:48:00,37.3,28.0,29.95,NW,310,0.0,-999.0,68,-99.99,,,0.00,weatherlink.com 1.10,2013-03-13 08:48:00,
2013-03-13 05:03:00,35.8,28.0,29.96,NW,310,0.0,-999.0,73,-99.99,,,0.00,weatherlink.com 1.10,2013-03-13 09:03:00,
2013-03-13 05:18:00,34.6,28.0,29.96,NW,310,0.0,-999.0,77,-99.99,,,0.00,weatherlink.com 1.10,2013-03-13 09:18:00,
2013-03-13 05:33:00,33.7,28.0,29.96,NW,310,0.0,-999.0,80,-99.99,,,0.00,weatherlink.com 1.10,2013-03-13 09:33:00,
2013-03-13 05:48:00,32.9,28.0,29.96,NW,310,0.0,-999.0,82,-99.99,,,0.00,weatherlink.com 1.10,2013-03-13 09:48:00,
2013-03-13 06:03:00,32.8,28.0,29.96,NW,310,0.0,-999.0,82,-99.99,,,0.00,weatherlink.com 1.10,2013-03-13 10:03:00,
2013-03-13 06:18:00,32.4,28.0,29.96,NW,310,0.0,-999.0,83,-99.99,,,0.00,weatherlink.com 1.10,2013-03-13 10:18:00,
2013-03-13 06:33:00,32.5,28.0,29.95,NW,310,0.0,-999.0,83,-99.99,,,0.00,weatherlink.com 1.10,2013-03-13 10:33:00,
2013-03-13 06:48:00,31.6,27.0,29.96,NW,310,0.0,-999.0,84,-99.99,,,0.00,weatherlink.com 1.10,2013-03-13 10:48:00,
2013-03-13 07:03:00,31.5,28.0,29.96,NW,310,0.0,-999.0,85,-99.99,,,0.00,weatherlink.com 1.10,2013-03-13 11:03:00,
2013-03-13 07:18:00,31.3,27.0,29.96,NW,310,0.0,-999.0,84,-99.99,,,0.00,weatherlink.com 1.10,2013-03-13 11:18:00,
2013-03-13 07:33:00,30.6,27.0,29.97,NW,310,0.0,-999.0,85,-99.99,,,0.00,weatherlink.com 1.10,2013-03-13 11:33:00,
2013-03-13 07:48:00,30.6,27.0,29.98,NW,310,0.0,-999.0,87,-99.99,,,0.00,weatherlink.com 1.10,2013-03-13 11:48:00,
2013-03-13 08:03:00,32.1,28.0,29.97,NW,310,0.0,-999.0,85,-99.99,,,0.00,weatherlink.com 1.10,2013-03-13 12:03:00,
2013-03-13 08:18:00,32.4,29.0,29.98,NW,310,0.0,-999.0,86,-99.99,,,0.00,weatherlink.com 1.10,2013-03-13 12:18:00,
2013-03-13 08:33:00,34.7,31.0,29.98,NW,310,0.0,-999.0,85,-99.99,,,0.00,weatherlink.com 1.10,2013-03-13 12:33:00,
2013-03-13 08:48:00,37.5,31.0,29.98,WSW,257,2.0,-999.0,76,-99.99,,,0.00,weatherlink.com 1.10,2013-03-13 12:48:00,
2013-03-13 09:03:00,39.6,31.0,29.98,South,181,0.0,-999.0,70,-99.99,,,0.00,weatherlink.com 1.10,2013-03-13 13:03:00,
2013-03-13 09:18:00,41.9,30.0,29.98,West,268,4.0,-999.0,63,-99.99,,,0.00,weatherlink.com 1.10,2013-03-13 13:18:00,
2013-03-13 09:33:00,42.2,29.0,29.98,West,274,3.0,-999.0,61,-99.99,,,0.00,weatherlink.com 1.10,2013-03-13 13:33:00,
2013-03-13 09:48:00,42.6,29.0,29.98,WSW,256,0.0,-999.0,58,-99.99,,,0.00,weatherlink.com 1.10,2013-03-13 13:48:00,
2013-03-13 10:03:00,43.2,30.0,29.97,WSW,256,0.0,-999.0,59,-99.99,,,0.00,weatherlink.com 1.10,2013-03-13 14:03:00,
2013-03-13 10:18:00,44.2,29.0,29.97,WNW,288,1.0,-999.0,55,-99.99,,,0.00,weatherlink.com 1.10,2013-03-13 14:18:00,
2013-03-13 10:33:00,44.6,28.0,29.96,SW,224,0.0,-999.0,52,-99.99,,,0.00,weatherlink.com 1.10,2013-03-13 14:33:00,
2013-03-13 10:48:00,45.2,28.0,29.96,West,261,0.0,-999.0,51,-99.99,,,0.00,weatherlink.com 1.10,2013-03-13 14:48:00,
2013-03-13 11:03:00,46.1,27.0,29.96,West,278,1.0,-999.0,48,-99.99,,,0.00,weatherlink.com 1.10,2013-03-13 15:03:00,
2013-03-13 11:18:00,46.7,27.0,29.95,WSW,237,2.0,-999.0,46,-99.99,,,0.00,weatherlink.com 1.10,2013-03-13 15:18:00,
2013-03-13 11:33:00,47.6,30.0,29.95,West,267,0.0,-999.0,50,-99.99,,,0.00,weatherlink.com 1.10,2013-03-13 15:33:00,
2013-03-13 11:48:00,48.6,28.0,29.95,WNW,301,3.0,-999.0,46,-99.99,,,0.00,weatherlink.com 1.10,2013-03-13 15:48:00,
2013-03-13 12:03:00,47.3,29.0,29.94,WNW,299,3.0,-999.0,50,-99.99,,,0.00,weatherlink.com 1.10,2013-03-13 16:03:00,
2013-03-13 12:18:00,48.0,27.0,29.94,WNW,283,3.0,-999.0,45,-99.99,,,0.00,weatherlink.com 1.10,2013-03-13 16:18:00,
2013-03-13 12:33:00,47.1,29.0,29.93,WSW,246,3.0,-999.0,49,-99.99,,,0.00,weatherlink.com 1.10,2013-03-13 16:33:00,
2013-03-13 12:48:00,48.5,28.0,29.93,West,268,3.0,-999.0,45,-99.99,,,0.00,weatherlink.com 1.10,2013-03-13 16:48:00,
2013-03-13 13:03:00,48.3,28.0,29.92,WNW,302,7.0,-999.0,45,-99.99,,,0.00,weatherlink.com 1.10,2013-03-13 17:03:00,
2013-03-13 13:18:00,47.4,28.0,29.91,West,279,3.0,-999.0,47,-99.99,,,0.00,weatherlink.com 1.10,2013-03-13 17:18:00,
2013-03-13 13:33:00,48.8,28.0,29.91,NW,323,5.0,-999.0,44,-99.99,,,0.00,weatherlink.com 1.10,2013-03-13 17:33:00,
2013-03-13 13:48:00,48.2,27.0,29.90,West,269,0.0,-999.0,44,-99.99,,,0.00,weatherlink.com 1.10,2013-03-13 17:48:00,
2013-03-13 14:03:00,47.9,28.0,29.90,WSW,247,0.0,-999.0,46,-99.99,,,0.00,weatherlink.com 1.10,2013-03-13 18:03:00,
2013-03-13 14:18:00,47.1,29.0,29.90,WNW,299,6.0,-999.0,50,-99.99,,,0.00,weatherlink.com 1.10,2013-03-13 18:18:00,
2013-03-13 14:33:00,45.4,32.0,29.90,West,274,8.0,-999.0,59,-99.99,,,0.00,weatherlink.com 1.10,2013-03-13 18:33:00,
2013-03-13 14:48:00,46.1,31.0,29.91,NNW,340,1.0,-999.0,57,-99.99,,,0.00,weatherlink.com 1.10,2013-03-13 18:48:00,
2013-03-13 15:03:00,46.1,31.0,29.90,North,354,6.0,-999.0,56,-99.99,,,0.00,weatherlink.com 1.10,2013-03-13 19:03:00,
2013-03-13 15:18:00,47.9,28.0,29.90,WNW,299,12.0,-999.0,47,-99.99,,,0.00,weatherlink.com 1.10,2013-03-13 19:18:00,
2013-03-13 15:48:00,47.4,24.0,29.89,West,281,4.0,-999.0,40,-99.99,,,0.00,weatherlink.com 1.10,2013-03-13 19:48:00,
2013-03-13 16:03:00,49.8,24.0,29.89,NNW,338,5.0,-999.0,37,-99.99,,,0.00,weatherlink.com 1.10,2013-03-13 20:03:00,
2013-03-13 16:18:00,48.9,21.0,29.88,WNW,287,14.0,-999.0,33,-99.99,,,0.00,weatherlink.com 1.10,2013-03-13 20:18:00,
2013-03-13 16:33:00,49.4,20.0,29.89,NW,323,13.0,-999.0,31,-99.99,,,0.00,weatherlink.com 1.10,2013-03-13 20:33:00,
2013-03-13 16:48:00,49.1,19.0,29.89,WNW,284,12.0,-999.0,31,-99.99,,,0.00,weatherlink.com 1.10,2013-03-13 20:48:00,
2013-03-13 17:03:00,49.4,21.0,29.90,West,268,15.0,-999.0,33,-99.99,,,0.00,weatherlink.com 1.10,2013-03-13 21:03:00,
2013-03-13 17:18:00,48.6,19.0,29.89,NW,325,6.0,-999.0,31,-99.99,,,0.00,weatherlink.com 1.10,2013-03-13 21:18:00,
2013-03-13 17:33:00,48.2,19.0,29.90,West,280,12.0,-999.0,32,-99.99,,,0.00,weatherlink.com 1.10,2013-03-13 21:33:00,
2013-03-13 17:48:00,47.6,18.0,29.90,NNW,336,6.0,-999.0,31,-99.99,,,0.00,weatherlink.com 1.10,2013-03-13 21:48:00,
2013-03-13 18:03:00,48.0,19.0,29.90,NW,309,13.0,-999.0,32,-99.99,,,0.00,weatherlink.com 1.10,2013-03-13 22:03:00,
2013-03-13 18:18:00,47.1,20.0,29.91,NW,316,3.0,-999.0,34,-99.99,,,0.00,weatherlink.com 1.10,2013-03-13 22:18:00,
2013-03-13 18:33:00,46.7,20.0,29.92,NW,316,10.0,-999.0,35,-99.99,,,0.00,weatherlink.com 1.10,2013-03-13 22:33:00,
2013-03-13 18:48:00,46.0,22.0,29.92,NW,306,7.0,-999.0,39,-99.99,,,0.00,weatherlink.com 1.10,2013-03-13 22:48:00,
2013-03-13 19:03:00,44.9,22.0,29.93,WNW,292,6.0,-999.0,41,-99.99,,,0.00,weatherlink.com 1.10,2013-03-13 23:03:00,
2013-03-13 19:18:00,44.3,22.0,29.95,NNW,343,12.0,-999.0,41,-99.99,,,0.00,weatherlink.com 1.10,2013-03-13 23:18:00,
2013-03-13 19:33:00,43.5,26.0,29.96,WNW,301,4.0,-999.0,51,-99.99,,,0.00,weatherlink.com 1.10,2013-03-13 23:33:00,
2013-03-13 19:48:00,42.1,26.0,29.97,WNW,286,3.0,-999.0,54,-99.99,,,0.00,weatherlink.com 1.10,2013-03-13 23:48:00,
2013-03-13 20:03:00,41.2,26.0,29.98,West,278,7.0,-999.0,54,-99.99,,,0.00,weatherlink.com 1.10,2013-03-14 00:03:00,
2013-03-13 20:18:00,40.9,25.0,29.98,NW,311,8.0,-999.0,54,-99.99,,,0.00,weatherlink.com 1.10,2013-03-14 00:18:00,
2013-03-13 20:33:00,40.8,25.0,29.99,West,271,2.0,-999.0,54,-99.99,,,0.00,weatherlink.com 1.10,2013-03-14 00:33:00,
2013-03-13 20:48:00,40.8,25.0,29.99,West,259,6.0,-999.0,53,-99.99,,,0.00,weatherlink.com 1.10,2013-03-14 00:48:00,
2013-03-13 21:03:00,40.6,24.0,30.00,WNW,296,0.0,-999.0,53,-99.99,,,0.00,weatherlink.com 1.10,2013-03-14 01:03:00,
2013-03-13 21:18:00,40.2,24.0,30.00,WNW,288,1.0,-999.0,52,-99.99,,,0.00,weatherlink.com 1.10,2013-03-14 01:18:00,
2013-03-13 21:33:00,39.6,21.0,30.01,West,278,19.0,-999.0,48,-99.99,,,0.00,weatherlink.com 1.10,2013-03-14 01:33:00,
2013-03-13 21:48:00,39.2,19.0,30.01,WNW,290,12.0,-999.0,45,-99.99,,,0.00,weatherlink.com 1.10,2013-03-14 01:48:00,
2013-03-13 22:03:00,38.8,18.0,30.02,West,269,10.0,-999.0,44,-99.99,,,0.00,weatherlink.com 1.10,2013-03-14 02:03:00,
2013-03-13 22:18:00,38.3,18.0,30.03,NW,307,6.0,-999.0,44,-99.99,,,0.00,weatherlink.com 1.10,2013-03-14 02:18:00,
2013-03-13 22:33:00,37.8,18.0,30.04,WNW,287,4.0,-999.0,45,-99.99,,,0.00,weatherlink.com 1.10,2013-03-14 02:33:00,
2013-03-13 22:48:00,37.2,19.0,30.04,NW,306,4.0,-999.0,48,-99.99,,,0.00,weatherlink.com 1.10,2013-03-14 02:48:00,
2013-03-13 23:03:00,36.6,19.0,30.04,West,280,3.0,-999.0,49,-99.99,,,0.00,weatherlink.com 1.10,2013-03-14 03:03:00,
2013-03-13 23:18:00,36.5,19.0,30.04,WNW,284,6.0,-999.0,50,-99.99,,,0.00,weatherlink.com 1.10,2013-03-14 03:18:00,
2013-03-13 23:33:00,36.2,19.0,30.05,NW,324,5.0,-999.0,51,-99.99,,,0.00,weatherlink.com 1.10,2013-03-14 03:33:00,
2013-03-13 23:48:00,35.9,19.0,30.05,NNW,341,17.0,-999.0,50,-99.99,,,0.00,weatherlink.com 1.10,2013-03-14 03:48:00,